Location: Anumalkud?ru
(16.4847°N, 80.6636°E)
Time: 15:08:04
(UTC+00:00)

Nadezhda 3 Rocket - Pass Details

Date: 11 April 2026
Orbit: 955 x 999 km, 82.9° (Epoch: 11 May)

Event Time Altitude Azimuth Distance (km) Brightness Sun altitude
Rises 14:50:55 0° 354° (N) 3,627 7.3 -28.5°
Reaches altitude 10° 14:53:24 10° 354° (N) 2,679 6.6 -29.0°
Enters shadow 14:59:29 83° 274° (W) 963 3.9 -30.4°
